Probability
0 0 0 0 0 0 0 0 0 0 0 0 10 3 6 3 10 10 6 6 3 6 6 6 10 6 6 10 10 13 10 10 13 13 3 3 10 10 13 13 16 16 16 19
0 0 0 0 0 0 0 0 0 0 0 0 3 3 3 3 6 6 6 3 6 6 3 3 6 13 10 10 6 10 13 13 13 10 10 6 10 10 10 16 16 16 16 16
0 0 0 0 0 0 0 0 0 0 0 0 3 3 6 3 6 6 3 3 6 6 3 6 6 10 13 10 3 13 16 16 16 13 10 10 13 10 6 10 10 10 13 13
0 0 0 0 0 0 0 0 3 0 0 3 3 3 3 6 10 6 3 6 6 3 6 6 6 6 10 6 6 10 10 10 10 10 6 10 6 10 6 10 10 10 10 10
0 0 0 0 0 0 0 0 0 0 0 3 3 3 3 0 6 10 6 3 3 6 6 6 6 6 6 6 10 13 13 10 6 6 10 10 10 10 10 10 10 10 10 10
0 0 0 0 0 0 0 0 0 0 3 3 3 6 6 0 6 13 10 10 6 6 10 10 10 10 6 10 10 10 10 10 6 10 6 6 10 10 10 13 13 13 13 13
0 0 0 0 0 0 0 0 0 0 3 0 3 3 3 3 3 6 10 10 6 10 13 10 10 6 6 10 6 6 6 6 6 6 6 6 6 6 6 13 13 13 13 13
0 0 0 0 0 0 0 0 0 0 3 3 3 6 10 6 3 6 6 10 6 10 6 6 6 3 3 6 6 6 6 3 3 6 6 6 6 6 6 10 13 13 13 10
0 0 0 0 0 0 0 0 0 0 3 10 10 10 10 10 6 3 10 10 6 6 6 3 3 6 6 6 6 6 3 3 3 3 6 6 6 6 6 6 13 13 13 10
3 3 3 0 0 0 0 0 0 3 3 6 10 13 10 13 6 3 3 3 3 3 0 0 3 6 6 6 3 3 3 3 3 3 3 6 6 6 6 6 10 6 10 10
3 0 0 0 0 0 0 0 0 0 3 3 6 10 10 6 6 6 6 0 0 0 3 3 0 0 3 6 6 3 3 3 3 3 3 6 6 6 6 6 6 6 6 6
0 0 0 0 0 0 0 0 3 6 10 10 10 6 3 3 3 6 0 0 0 0 3 3 0 3 0 0 6 6 6 0 0 3 3 3 6 6 3 3 3 3 3 3
0 0 0 0 0 0 3 3 10 10 10 6 3 3 3 3 3 3 0 0 0 0 0 0 0 0 0 0 0 3 3 3 3 3 0 0 0 3 3 0 0 0 0 0
0 0 0 0 0 0 3 6 6 3 0 3 3 3 3 3 3 3 3 3 3 0 0 3 0 0 0 0 0 0 0 0 3 3 3 3 0 0 3 3 3 3 0 0
0 0 0 0 3 3 3 3 3 0 0 0 0 0 3 3 3 6 6 6 3 0 0 0 0 0 0 0 0 0 0 0 0 0 0 0 0 0 0 0 0 0 0 0
0 0 0 0 0 3 0 0 0 0 0 0 0 0 0 0 0 3 3 6 6 6 3 0 0 0 0 0 0 0 0 0 0 0 0 0 0 0 0 0 0 0 0 3
0 0 0 0 0 0 0 0 0 0 0 0 0 0 0 0 0 0 0 0 3 3 3 3 3 0 0 0 0 0 0 0 0 0 0 0 0 0 0 0 0 0 0 0
0 0 0 0 0 0 0 0 0 0 0 0 0 0 0 0 0 0 0 0 3 3 3 3 0 0 0 3 3 0 0 0 0 0 0 0 0 0 0 3 0 3 0 0
0 0 0 0 0 0 0 0 0 0 0 0 0 0 0 0 3 0 0 0 3 3 3 3 0 0 0 0 0 0 0 0 0 0 0 0 0 0 0 0 3 3 0 0
0 0 0 0 0 0 0 0 0 0 0 0 0 0 0 3 3 3 0 0 3 3 3 3 0 0 0 0 0 0 0 0 3 3 3 0 0 0 0 0 0 0 0 0
0 0 0 0 0 0 0 0 0 0 0 0 0 0 3 3 3 3 0 0 0 3 3 0 0 0 0 0 0 0 0 0 0 0 0 0 3 3 3 3 3 3 0 0
0 0 0 0 0 0 0 0 0 0 0 0 0 3 3 3 3 0 0 0 0 0 0 0 0 0 0 0 0 0 0 0 0 0 0 0 0 0 0 0 0 0 0 0
0 0 0 0 0 0 0 0 0 0 0 0 0 3 3 0 0 0 0 0 0 0 0 0 0 0 0 0 0 0 0 0 0 0 0 0 0 0 0 0 0 0 0 0
0 0 0 0 0 0 0 0 0 0 0 0 0 0 0 0 0 0 0 0 0 0 0 0 0 0 0 0 0 0 0 0 0 0 0 0 0 0 0 0 0 0 0 0
0 0 0 0 0 0 0 0 0 0 0 0 0 0 0 0 0 0 0 0 0 0 0 0 0 0 0 0 0 0 0 0 0 0 0 0 0 0 0 0 0 0 3 3
0 0 0 0 0 0 0 0 0 0 0 0 0 0 0 0 0 0 0 0 0 0 0 0 0 0 0 0 0 0 0 0 0 0 3 3 3 3 3 3 3 3 3 3
0 0 0 0 0 0 0 0 0 0 0 0 0 0 0 0 0 0 0 0 0 0 0 0 0 0 0 0 0 0 0 0 0 0 0 0 0 0 0 0 0 0 0 0
Height
5862 5864 5865 5867 5868 5868 5869 5869 5870 5871 5871 5871 5871 5871 5870 5870 5870 5869 5869 5867 5866 5865 5864 5864 5863 5862 5861 5859 5858 5857 5855 5854 5853 5852 5850 5849 5848 5847 5845 5844 5843 5842 5840 5839
5856 5858 5860 5861 5862 5863 5864 5864 5865 5865 5866 5866 5865 5865 5865 5865 5864 5864 5863 5862 5861 5860 5859 5858 5857 5857 5855 5854 5853 5851 5850 5848 5847 5846 5844 5843 5842 5841 5839 5838 5836 5835 5833 5832
5850 5852 5853 5855 5857 5858 5858 5859 5860 5860 5861 5860 5860 5860 5860 5859 5859 5858 5857 5856 5855 5854 5853 5852 5851 5850 5849 5848 5846 5845 5844 5842 5841 5840 5838 5837 5836 5834 5833 5832 5830 5828 5826 5825
5843 5846 5846 5852 5852 5852 5852 5853 5854 5854 5854 5854 5854 5854 5854 5853 5852 5852 5851 5850 5849 5848 5846 5845 5844 5843 5842 5841 5840 5838 5837 5835 5834 5833 5832 5831 5829 5828 5826 5825 5823 5821 5819 5817
5836 5838 5840 5843 5845 5845 5846 5847 5848 5848 5848 5848 5847 5847 5847 5846 5846 5845 5844 5843 5842 5841 5839 5838 5837 5836 5835 5834 5832 5831 5830 5828 5827 5826 5825 5824 5822 5820 5819 5817 5815 5813 5811 5810
5830 5831 5833 5837 5838 5838 5840 5841 5842 5841 5841 5841 5840 5841 5841 5840 5839 5838 5838 5836 5835 5834 5832 5831 5830 5828 5827 5826 5825 5823 5822 5821 5819 5818 5817 5816 5814 5813 5811 5810 5807 5805 5804 5802
5823 5824 5826 5829 5830 5832 5834 5835 5835 5834 5834 5834 5833 5834 5834 5833 5832 5832 5831 5830 5828 5827 5826 5824 5823 5821 5820 5818 5817 5815 5814 5812 5811 5809 5808 5807 5806 5804 5803 5801 5799 5797 5795 5794
5816 5817 5821 5822 5823 5825 5826 5826 5827 5827 5827 5827 5827 5827 5826 5826 5825 5825 5824 5823 5821 5820 5819 5817 5815 5813 5812 5810 5809 5807 5805 5803 5802 5800 5799 5798 5797 5795 5794 5792 5790 5788 5787 5785
5809 5812 5814 5814 5815 5816 5817 5818 5819 5819 5820 5820 5820 5819 5819 5818 5818 5817 5817 5815 5814 5813 5811 5810 5808 5806 5804 5802 5800 5798 5796 5794 5793 5791 5790 5788 5787 5786 5785 5783 5781 5779 5777 5776
5801 5803 5805 5807 5808 5809 5810 5810 5811 5811 5812 5812 5812 5812 5811 5811 5810 5809 5808 5807 5806 5805 5803 5801 5800 5798 5796 5793 5791 5789 5788 5786 5784 5782 5780 5779 5777 5776 5775 5773 5772 5770 5768 5766
5793 5795 5797 5799 5800 5801 5802 5803 5803 5804 5804 5804 5804 5804 5804 5803 5803 5802 5801 5800 5798 5797 5795 5793 5791 5789 5787 5785 5782 5781 5778 5776 5774 5773 5771 5770 5768 5766 5765 5763 5761 5760 5758 5756
5785 5787 5789 5791 5792 5793 5794 5795 5795 5796 5796 5796 5795 5795 5795 5795 5794 5794 5793 5792 5790 5789 5787 5784 5782 5780 5778 5776 5773 5771 5769 5767 5765 5763 5762 5760 5759 5757 5755 5753 5752 5750 5748 5746
5777 5779 5781 5782 5783 5784 5785 5786 5787 5787 5787 5787 5787 5787 5787 5786 5786 5785 5784 5783 5782 5780 5778 5776 5774 5772 5770 5767 5765 5762 5760 5757 5755 5753 5752 5750 5749 5747 5746 5744 5742 5740 5738 5736
5769 5771 5772 5774 5775 5776 5777 5778 5778 5779 5779 5779 5779 5778 5778 5778 5778 5777 5776 5774 5773 5771 5770 5768 5766 5763 5761 5758 5756 5753 5751 5748 5746 5744 5742 5740 5739 5738 5736 5735 5733 5731 5729 5727
5761 5763 5765 5766 5767 5768 5768 5769 5770 5770 5771 5770 5770 5770 5770 5770 5769 5768 5767 5766 5764 5762 5761 5759 5757 5754 5752 5749 5747 5744 5742 5739 5737 5735 5733 5731 5730 5728 5726 5724 5723 5721 5719 5717
5754 5755 5757 5758 5759 5760 5761 5761 5762 5762 5763 5762 5762 5761 5761 5761 5760 5760 5759 5757 5756 5754 5751 5749 5747 5745 5742 5740 5738 5735 5733 5730 5728 5726 5724 5722 5720 5718 5716 5714 5712 5711 5709 5707
5746 5748 5749 5751 5752 5753 5753 5754 5754 5755 5755 5755 5754 5754 5753 5752 5752 5751 5750 5749 5747 5745 5743 5740 5738 5736 5733 5731 5729 5726 5724 5722 5719 5717 5714 5712 5710 5708 5706 5704 5702 5700 5699 5697
5739 5741 5742 5743 5744 5745 5746 5746 5747 5747 5747 5747 5747 5746 5745 5745 5744 5743 5742 5741 5739 5737 5734 5731 5729 5727 5725 5723 5720 5718 5715 5713 5710 5708 5705 5703 5700 5698 5695 5693 5691 5689 5688 5686
5732 5733 5735 5736 5737 5738 5739 5739 5739 5739 5739 5739 5739 5738 5738 5737 5736 5735 5734 5733 5731 5728 5726 5723 5721 5719 5716 5714 5712 5710 5707 5704 5702 5699 5696 5694 5691 5688 5685 5683 5681 5679 5677 5675
5725 5726 5727 5729 5730 5731 5732 5732 5732 5732 5732 5731 5731 5730 5730 5729 5728 5727 5726 5724 5722 5719 5717 5715 5713 5711 5708 5706 5703 5701 5699 5696 5693 5690 5687 5685 5682 5679 5676 5673 5671 5668 5667 5665
5718 5719 5721 5722 5723 5724 5724 5725 5725 5725 5724 5724 5724 5723 5722 5721 5720 5719 5717 5716 5714 5711 5709 5707 5705 5703 5700 5698 5695 5693 5690 5687 5685 5682 5679 5676 5673 5670 5667 5664 5661 5659 5657 5655
5711 5712 5714 5715 5716 5717 5717 5718 5718 5717 5717 5717 5716 5715 5714 5713 5712 5711 5709 5708 5706 5703 5701 5699 5697 5695 5692 5690 5687 5684 5682 5679 5676 5673 5671 5668 5664 5661 5658 5655 5653 5650 5648 5646
5705 5706 5707 5708 5709 5710 5710 5710 5710 5710 5710 5709 5708 5707 5706 5705 5704 5703 5702 5700 5698 5696 5694 5692 5689 5687 5684 5682 5679 5677 5674 5671 5668 5665 5662 5659 5656 5653 5650 5647 5644 5641 5639 5637
5699 5700 5701 5702 5703 5703 5704 5704 5703 5703 5702 5702 5701 5700 5699 5698 5697 5695 5694 5692 5690 5688 5686 5684 5682 5679 5677 5674 5671 5669 5666 5663 5660 5657 5654 5651 5648 5645 5642 5639 5636 5633 5630 5628
5693 5694 5695 5695 5696 5696 5696 5696 5696 5696 5695 5694 5694 5693 5691 5690 5689 5688 5686 5684 5682 5680 5678 5676 5674 5671 5669 5666 5664 5661 5658 5655 5652 5649 5646 5643 5640 5637 5634 5631 5628 5625 5622 5620
5687 5687 5688 5688 5689 5689 5689 5689 5689 5688 5687 5687 5686 5685 5684 5682 5681 5680 5678 5676 5674 5672 5670 5668 5666 5664 5661 5658 5656 5653 5650 5647 5644 5641 5638 5635 5632 5629 5626 5623 5620 5618 5615 5613
5681 5681 5681 5682 5682 5682 5682 5682 5682 5681 5680 5679 5679 5677 5676 5675 5673 5672 5670 5668 5666 5664 5662 5660 5658 5655 5653 5650 5647 5645 5642 5639 5636 5633 5630 5627 5624 5622 5619 5616 5614 5611 5609 5607
Wind_Speed
23 23 23 24 25 25 25 26 26 24 23 20 20 19 19 18 17 18 19 19 19 18 18 17 18 19 20 21 20 20 20 20 20 20 19 19 20 20 20 21 22 23 24 24
26 25 25 25 24 24 25 26 26 25 23 21 21 21 20 20 19 20 20 20 20 21 20 19 20 20 21 21 22 22 23 22 22 21 21 21 22 21 22 22 23 24 25 25
28 27 26 26 24 25 25 25 25 26 25 25 24 24 23 22 22 21 21 21 22 22 22 21 22 22 22 21 22 23 23 23 23 23 23 23 23 23 24 24 25 25 25 25
29 28 29 26 25 25 26 26 26 26 25 26 26 25 24 24 24 23 22 22 23 23 23 23 24 23 23 23 23 23 23 24 25 25 25 26 26 26 27 27 27 26 26 26
29 29 28 26 25 26 26 25 24 25 26 26 26 26 25 25 25 24 24 24 24 24 24 25 25 25 25 24 24 24 24 25 25 26 27 27 27 28 28 28 28 28 28 27
29 29 29 27 26 25 26 26 25 26 26 26 26 25 24 25 25 25 25 25 25 25 25 25 26 26 26 26 26 26 26 26 27 28 28 29 29 29 29 29 29 29 29 28
30 30 29 28 27 27 27 26 25 25 25 26 26 25 25 25 26 26 25 25 25 25 26 26 27 27 27 27 28 28 28 29 29 29 29 29 29 29 29 29 30 30 30 29
31 30 29 28 28 29 28 27 26 26 26 26 26 26 25 26 26 26 26 26 26 26 27 27 27 28 28 28 29 29 30 30 31 31 31 31 30 30 31 31 32 31 31 31
31 30 29 29 29 29 29 28 28 27 26 26 26 26 26 26 26 26 27 27 27 27 27 27 28 28 29 29 30 30 31 31 32 32 32 33 32 32 32 33 33 32 32 31
30 30 29 29 29 29 28 27 27 27 27 27 27 26 26 27 27 27 27 27 27 28 28 28 28 29 29 29 30 31 32 33 33 33 33 33 33 33 33 33 33 33 33 32
31 30 30 29 30 29 28 28 27 28 28 28 28 28 28 28 28 28 28 28 28 29 29 29 29 29 30 30 30 31 31 32 32 32 32 33 33 34 34 34 34 34 33 32
30 31 31 30 30 30 28 28 28 28 28 28 28 28 27 27 28 28 28 28 29 29 29 30 30 29 29 30 30 31 31 31 32 32 33 33 34 34 34 34 34 34 32 32
30 30 30 30 30 29 29 29 28 28 28 28 28 28 28 28 28 29 29 28 29 29 30 30 30 30 30 31 31 31 31 32 32 32 33 34 33 33 33 33 33 33 33 33
29 30 30 30 29 29 30 29 29 28 28 28 28 28 28 28 28 28 29 29 29 30 30 31 31 31 31 31 31 31 31 31 31 31 31 32 31 32 32 32 32 32 32 33
29 29 29 29 29 29 29 29 29 29 28 27 27 28 28 28 28 29 29 29 30 31 31 32 32 31 31 31 31 32 32 32 32 31 31 31 31 32 33 33 32 32 32 32
28 28 27 27 28 28 28 28 28 28 27 25 25 26 27 27 28 28 29 29 30 30 31 31 31 31 31 32 32 32 32 32 32 32 32 32 33 33 34 33 33 33 33 32
28 28 27 27 27 27 28 27 27 27 27 26 26 26 27 27 27 28 28 29 29 30 30 30 30 31 30 31 31 31 31 31 32 32 31 32 33 33 34 34 34 33 33 33
27 27 27 28 27 27 27 26 26 26 26 26 26 26 26 26 27 27 28 29 29 29 30 30 30 30 29 30 30 31 31 30 31 31 32 32 33 33 33 33 32 33 33 33
25 25 26 26 25 25 25 26 26 26 26 26 26 26 27 27 27 27 28 28 29 29 29 29 29 29 30 30 30 30 30 30 30 31 31 31 32 32 32 32 32 32 32 32
24 24 25 25 25 25 25 25 25 26 26 26 26 26 26 26 26 27 28 28 28 28 28 29 28 29 29 29 29 30 30 31 31 31 31 31 31 30 30 30 30 30 31 32
23 23 23 24 24 24 25 25 26 26 26 26 26 25 25 25 25 26 27 27 28 28 27 27 27 28 28 29 29 29 30 30 30 30 30 30 30 30 30 29 29 29 30 30
21 21 22 22 22 22 23 24 25 25 26 26 26 25 25 25 25 25 25 25 25 26 26 26 27 27 28 28 28 28 28 28 29 29 29 29 29 29 28 28 28 28 29 29
21 21 21 21 21 22 22 23 24 25 25 25 25 25 25 24 24 23 24 24 24 25 26 26 26 26 26 27 27 27 27 27 27 27 27 27 27 28 28 28 28 28 28 28
20 20 21 21 21 22 23 23 24 24 24 24 24 24 24 24 24 24 24 24 24 25 26 26 26 26 26 26 26 26 27 27 27 27 27 27 28 29 29 29 28 27 27 26
19 20 21 21 22 22 22 23 23 24 25 25 25 25 25 25 24 24 24 25 25 25 26 26 26 26 26 26 26 26 27 27 28 28 28 28 28 28 28 27 26 26 25 25
20 21 21 21 22 22 22 23 23 24 24 24 24 24 25 25 25 24 25 25 26 26 27 26 26 26 26 26 27 27 28 28 28 28 28 28 27 26 25 25 24 24 24 23
17 18 19 19 20 21 22 22 22 23 23 22 22 22 22 23 24 25 26 26 26 27 27 27 26 26 26 26 27 27 27 27 27 27 26 26 25 24 24 23 23 22 22 22
Wind_Direction
250 249 250 251 252 255 260 266 269 273 276 278 282 286 287 286 282 283 286 287 285 285 286 287 288 287 287 287 284 284 284 287 288 289 290 291 292 291 289 287 286 287 286 287
252 252 252 252 254 257 261 264 268 271 274 276 277 281 283 284 283 282 283 283 285 284 284 284 286 288 288 286 283 283 284 286 287 287 289 290 291 290 289 290 289 288 288 287
252 251 252 252 254 258 261 265 268 270 273 274 276 280 281 282 284 283 283 281 282 285 285 285 286 288 289 286 285 285 285 285 285 286 287 288 290 289 288 289 289 290 289 286
253 252 253 256 257 259 262 264 267 270 272 274 275 278 277 279 281 281 281 285 286 286 287 287 287 288 289 288 286 285 286 286 285 286 285 287 287 287 287 288 289 289 287 287
254 254 256 257 259 261 262 262 265 268 271 273 274 276 276 278 280 281 281 284 286 286 285 285 286 288 288 289 288 287 286 286 286 285 285 285 286 287 287 288 288 288 288 288
254 256 259 259 260 262 261 261 264 268 271 273 275 275 277 280 280 280 281 283 285 285 286 285 286 287 287 288 289 290 288 285 285 284 283 284 284 285 286 287 287 288 287 287
253 256 259 261 263 264 263 264 266 269 271 274 274 276 276 276 277 278 280 282 284 286 286 287 287 288 288 287 288 288 287 285 284 284 284 284 284 285 285 285 286 286 287 287
252 255 258 261 263 264 265 265 267 269 271 273 276 277 276 275 276 277 279 281 283 285 286 287 288 289 288 288 286 286 286 286 284 283 282 284 284 283 284 285 285 284 285 285
251 254 257 259 262 265 265 267 269 270 271 272 275 277 276 275 275 275 278 281 282 284 286 288 288 288 288 287 286 286 286 286 286 284 283 283 284 283 282 284 283 284 284 282
251 252 254 257 261 263 264 267 269 270 271 273 273 273 274 274 274 275 276 278 281 283 286 287 287 287 287 286 286 286 286 286 286 287 287 285 284 283 283 283 283 284 283 281
252 253 254 256 259 261 263 266 268 269 270 272 271 272 273 273 273 274 276 279 281 284 285 286 287 288 288 288 287 288 287 287 286 286 286 285 285 284 285 284 283 285 284 282
252 253 254 256 258 259 261 263 266 269 271 272 271 271 272 272 273 275 276 279 282 284 285 286 287 287 288 289 290 289 288 286 286 286 285 285 285 283 283 284 285 286 286 286
252 253 256 257 258 259 261 263 265 267 270 272 272 271 271 271 272 275 278 280 282 284 285 287 287 287 289 290 291 291 289 288 287 286 285 284 284 284 285 286 287 287 287 287
252 253 255 255 258 260 261 262 264 267 269 271 272 271 270 271 273 276 278 281 283 284 285 287 288 289 290 291 291 292 291 289 287 286 285 284 284 285 286 286 286 286 286 287
251 253 255 255 257 260 263 264 264 266 268 270 271 271 271 272 274 277 279 281 283 285 286 287 289 290 291 291 292 292 292 291 290 288 287 286 285 286 286 286 286 286 286 286
251 253 254 255 257 259 264 266 265 266 268 270 272 273 273 273 275 276 279 282 285 286 287 287 288 288 289 290 291 292 293 293 292 291 289 286 286 287 288 288 287 286 286 286
251 252 254 257 260 260 263 266 266 266 268 270 273 276 275 274 277 279 282 284 285 287 287 287 288 290 291 291 291 292 293 293 292 291 290 291 290 290 289 288 287 286 285 285
251 253 254 257 260 260 262 265 267 267 268 269 273 274 274 274 276 278 281 284 285 287 288 287 288 289 290 291 292 293 293 293 293 292 293 293 292 292 291 289 287 287 286 285
251 254 255 257 258 260 261 262 266 266 266 268 271 274 275 275 277 279 281 284 286 287 288 289 290 290 290 291 292 293 294 294 295 296 296 295 294 293 292 291 289 287 286 285
251 254 255 256 257 260 261 264 266 268 270 273 274 275 277 279 279 281 283 284 289 290 289 289 290 291 292 292 292 293 294 295 296 297 296 297 297 297 295 293 291 289 288 287
250 252 255 257 259 260 262 265 268 271 272 274 277 278 280 281 282 283 284 284 287 290 291 291 291 292 292 292 294 294 296 297 298 298 298 299 299 299 298 297 294 292 290 289
250 252 255 257 259 260 262 265 268 270 273 275 277 278 280 281 283 285 286 287 288 290 292 292 292 292 293 294 295 296 297 298 299 299 299 300 301 302 302 300 298 296 293 291
251 255 256 257 259 261 264 267 270 273 274 276 277 278 280 281 283 285 288 289 290 292 293 293 293 293 294 294 296 297 299 300 301 301 301 302 303 304 303 302 300 299 296 294
254 259 259 260 261 263 266 269 271 273 275 277 279 280 281 282 284 286 288 289 290 292 293 293 294 294 295 296 297 298 299 301 302 302 302 303 304 305 304 303 301 300 298 297
256 259 261 262 262 264 268 269 271 273 276 277 278 279 281 283 284 285 287 289 291 292 293 293 294 295 295 297 298 299 299 300 301 301 302 304 304 305 305 305 304 301 297 296
260 263 264 264 265 267 269 271 273 275 277 278 279 279 279 280 281 283 285 288 290 293 294 294 293 293 294 296 298 299 300 301 301 301 302 303 303 304 304 304 304 303 300 297
262 265 267 269 271 272 272 272 274 276 277 277 278 281 282 283 284 285 285 287 291 293 294 294 293 293 294 296 298 300 300 302 302 302 303 303 303 303 303 303 303 303 303 301